Oscoda, MI

2:57 AM EDT on August 23, 2017 (GMT -0400)
Oscoda-Wurtsmith

Weather History for KOSC - March, 2013

Change the Weather History Date:

Monday, March 4, 2013

  Actual Average Record
Temperature  
Mean Temperature 19 °F -  
Max Temperature 30 °F 31 °F 42 °F (2004)
Min Temperature 8 °F 16 °F -7 °F (2002)
Degree Days  
Heating Degree Days 46    
Moisture  
Dew Point 11 °F    
Average Humidity 77    
Maximum Humidity 89    
Minimum Humidity 47    
Precipitation  
Precipitation 0.00 in - - ()
Sea Level Pressure  
Sea Level Pressure 30.08 in    
Wind  
Wind Speed 5 mph (NW)    
Max Wind Speed 12 mph    
Max Gust Speed -    
Visibility 10 miles    
Events      
Averages and records for this station are not official NWS values.
T = Trace of Precipitation, MM = Missing Value Source: NWS Daily Summary

Daily Weather History Graph

Daily Weather History Graph

Search for Another Location

Airport or City:

Trip Planner

Search our weather history database for the weather conditions in past years. The results will help you decide how hot, cold, wet, or windy it might be!

Date:

Astronomy

Mar. 04, 2013 Rise Set
Actual Time 7:05 AM EST 6:25 PM EST
Civil Twilight 6:36 AM EST 6:54 PM EST
Nautical Twilight 6:02 AM EST 7:28 PM EST
Astronomical Twilight 5:28 AM EST 8:02 PM EST
Moon 1:23 AM EST (3/4) 10:56 AM EST (3/4)
Length of Visible Light 12h 18m
Length of Day
11h 20m
Waning Gibbous, 52% of the Moon is Illuminated
Mar 4
Waning Gibbous
Mar 4
Last Quarter
Mar 11
New
Mar 19
First Quarter
Mar 27
Full

Hourly Weather History & Observations

Time (EST) Temp. Windchill Dew Point Humidity Pressure Visibility Wind Dir Wind Speed Gust Speed Precip Events Conditions
12:13 AM 13.6 °F 0.7 °F 8.4 °F 80% 30.04 in 10.0 mi NW 10.4 mph - N/A   Mostly Cloudy
12:34 AM 14.2 °F 3.1 °F 8.6 °F 78% 30.03 in 10.0 mi NW 8.1 mph - N/A   Scattered Clouds
12:53 AM 14.0 °F 2.9 °F 8.6 °F 79% 30.04 in 10.0 mi WNW 8.1 mph - N/A   Clear
1:13 AM 12.7 °F 1.4 °F 8.1 °F 82% 30.04 in 10.0 mi WNW 8.1 mph - N/A   Clear
1:34 AM 11.8 °F 3.9 °F 7.5 °F 83% 30.05 in 10.0 mi WNW 4.6 mph - N/A   Clear
1:53 AM 11.1 °F 1.7 °F 7.2 °F 84% 30.05 in 10.0 mi WNW 5.8 mph - N/A   Clear
2:13 AM 10.4 °F 0.8 °F 7.0 °F 86% 30.05 in 10.0 mi WNW 5.8 mph - N/A   Clear
2:34 AM 10.2 °F 0.6 °F 6.8 °F 86% 30.05 in 10.0 mi WNW 5.8 mph - N/A   Clear
2:53 AM 10.2 °F 0.6 °F 7.2 °F 87% 30.05 in 10.0 mi WNW 5.8 mph - N/A   Clear
3:13 AM 9.5 °F 1.2 °F 6.6 °F 88% 30.05 in 10.0 mi WNW 4.6 mph - N/A   Clear
3:34 AM 9.5 °F -0.3 °F 6.6 °F 88% 30.05 in 10.0 mi WNW 5.8 mph - N/A   Clear
3:53 AM 9.1 °F -1.9 °F 6.3 °F 88% 30.05 in 10.0 mi WNW 6.9 mph - N/A   Clear
4:13 AM 9.5 °F 1.2 °F 6.6 °F 88% 30.05 in 10.0 mi WNW 4.6 mph - N/A   Clear
4:34 AM 9.3 °F -0.5 °F 6.3 °F 87% 30.06 in 10.0 mi WNW 5.8 mph - N/A   Clear
4:53 AM 8.6 °F 2.0 °F 5.7 °F 88% 30.06 in 10.0 mi WNW 3.5 mph - N/A   Clear
5:13 AM 8.1 °F - 5.2 °F 88% 30.06 in 10.0 mi Calm Calm - N/A   Clear
5:34 AM 8.6 °F -1.3 °F 5.9 °F 89% 30.07 in 10.0 mi NW 5.8 mph - N/A   Clear
5:53 AM 10.0 °F -1.9 °F 7.2 °F 88% 30.08 in 10.0 mi NW 8.1 mph - N/A   Clear
6:13 AM 9.5 °F -1.5 °F 6.8 °F 89% 30.09 in 10.0 mi NW 6.9 mph - N/A   Clear
6:34 AM 9.7 °F -2.4 °F 6.8 °F 88% 30.09 in 10.0 mi NW 8.1 mph - N/A   Clear
6:53 AM 10.0 °F -0.9 °F 7.2 °F 88% 30.09 in 10.0 mi NW 6.9 mph - N/A   Clear
7:14 AM 9.5 °F -0.3 °F 6.8 °F 89% 30.10 in 10.0 mi WNW 5.8 mph - N/A   Clear
7:33 AM 10.0 °F 1.8 °F 7.0 °F 87% 30.10 in 10.0 mi WNW 4.6 mph - N/A   Clear
7:53 AM 10.4 °F - 7.3 °F 87% 30.10 in 10.0 mi Calm Calm - N/A   Clear
8:14 AM 10.4 °F - 6.8 °F 85% 30.10 in 10.0 mi Calm Calm - N/A   Clear
8:33 AM 12.4 °F 4.6 °F 8.6 °F 85% 30.10 in 10.0 mi NW 4.6 mph - N/A   Clear
8:53 AM 14.0 °F 6.5 °F 9.5 °F 82% 30.10 in 10.0 mi NW 4.6 mph - N/A   Clear
9:14 AM 15.6 °F 10.0 °F 10.4 °F 80% 30.10 in 10.0 mi NNW 3.5 mph - N/A   Clear
9:33 AM 17.1 °F 8.7 °F 11.1 °F 77% 30.10 in 10.0 mi NNW 5.8 mph - N/A   Clear
9:53 AM 18.3 °F 11.5 °F 11.8 °F 76% 30.10 in 10.0 mi NNW 4.6 mph - N/A   Clear
10:14 AM 19.4 °F 8.6 °F 12.0 °F 73% 30.10 in 10.0 mi NNW 9.2 mph - N/A   Scattered Clouds
10:33 AM 20.3 °F 8.3 °F 12.2 °F 71% 30.10 in 10.0 mi NW 11.5 mph - N/A   Scattered Clouds
10:53 AM 21.0 °F 12.4 °F 12.2 °F 69% 30.10 in 10.0 mi NW 6.9 mph - N/A   Clear
11:14 AM 22.3 °F 13.9 °F 12.7 °F 67% 30.11 in 10.0 mi North 6.9 mph - N/A   Clear
11:33 AM 23.0 °F - 12.7 °F 65% 30.10 in 10.0 mi Calm Calm - N/A   Clear
11:53 AM 24.4 °F 17.5 °F 12.9 °F 62% 30.10 in 10.0 mi WNW 5.8 mph - N/A   Clear
12:14 PM 25.3 °F 18.5 °F 12.9 °F 59% 30.10 in 10.0 mi NNW 5.8 mph - N/A   Clear
12:33 PM 26.2 °F 22.1 °F 12.4 °F 56% 30.10 in 10.0 mi NW 3.5 mph - N/A   Clear
12:53 PM 28.2 °F - 12.9 °F 53% 30.10 in 10.0 mi Calm Calm - N/A   Clear
1:14 PM 28.9 °F 21.9 °F 12.9 °F 51% 30.09 in 10.0 mi NW 6.9 mph - N/A   Clear
1:53 PM 29.5 °F 22.5 °F 13.8 °F 52% 30.07 in 10.0 mi North 6.9 mph - N/A   Clear
2:14 PM 29.7 °F 23.7 °F 14.4 °F 53% 30.07 in 10.0 mi NNE 5.8 mph - N/A   Clear
2:33 PM 30.7 °F 27.3 °F 13.6 °F 49% 30.07 in 10.0 mi NNW 3.5 mph - N/A   Clear
2:53 PM 30.7 °F 24.9 °F 12.6 °F 47% 30.07 in 10.0 mi NNW 5.8 mph - N/A   Clear
3:14 PM 30.6 °F 25.8 °F 13.1 °F 48% 30.06 in 10.0 mi North 4.6 mph - N/A   Clear
3:33 PM 28.9 °F 21.9 °F 16.9 °F 61% 30.07 in 10.0 mi ESE 6.9 mph - N/A   Clear
3:54 PM 28.4 °F 22.2 °F 16.5 °F 61% 30.07 in 10.0 mi SE 5.8 mph - N/A   Clear
4:13 PM 28.4 °F 23.3 °F 17.1 °F 63% 30.07 in 10.0 mi ESE 4.6 mph - N/A   Clear
4:33 PM 28.2 °F 22.0 °F 16.5 °F 62% 30.07 in 10.0 mi East 5.8 mph - N/A   Clear
4:54 PM 27.9 °F 21.5 °F 17.2 °F 64% 30.07 in 10.0 mi East 5.8 mph - N/A   Clear
5:13 PM 27.3 °F 22.0 °F 17.4 °F 66% 30.08 in 10.0 mi East 4.6 mph - N/A   Clear
5:33 PM 26.6 °F 22.6 °F 17.6 °F 69% 30.08 in 10.0 mi East 3.5 mph - N/A   Clear
5:54 PM 26.4 °F - 17.6 °F 69% 30.09 in 10.0 mi Calm Calm - N/A   Clear
6:13 PM 26.1 °F - 18.0 °F 71% 30.10 in 10.0 mi Calm Calm - N/A   Clear
6:33 PM 25.7 °F - 18.1 °F 73% 30.10 in 10.0 mi Calm Calm - N/A   Clear
6:54 PM 25.2 °F - 17.6 °F 73% 30.10 in 10.0 mi Calm Calm - N/A   Clear
7:13 PM 24.6 °F - 17.8 °F 75% 30.10 in 10.0 mi Calm Calm - N/A   Clear
7:33 PM 23.0 °F - 17.2 °F 79% 30.10 in 10.0 mi Calm Calm - N/A   Clear
7:53 PM 19.9 °F - 15.4 °F 83% 30.10 in 10.0 mi Calm Calm - N/A   Clear
8:13 PM 17.8 °F - 14.0 °F 85% 30.11 in 10.0 mi Calm Calm - N/A   Clear
8:34 PM 17.1 °F - 13.8 °F 87% 30.11 in 10.0 mi Calm Calm - N/A   Clear
8:53 PM 16.0 °F - 12.9 °F 88% 30.11 in 10.0 mi Calm Calm - N/A   Clear
9:13 PM 16.7 °F - 13.8 °F 88% 30.12 in 10.0 mi Calm Calm - N/A   Clear
9:34 PM 15.6 °F - 12.9 °F 89% 30.11 in 10.0 mi Calm Calm - N/A   Clear
9:53 PM 12.7 °F - 9.1 °F 86% 30.11 in 10.0 mi Calm Calm - N/A   Clear
10:13 PM 12.4 °F - 9.3 °F 88% 30.12 in 10.0 mi Calm Calm - N/A   Clear
10:34 PM 12.4 °F - 9.3 °F 88% 30.12 in 10.0 mi Calm Calm - N/A   Clear
10:53 PM 12.0 °F - 8.6 °F 86% 30.12 in 10.0 mi Calm Calm - N/A   Clear
11:13 PM 12.4 °F - 9.5 °F 88% 30.12 in 10.0 mi Calm Calm - N/A   Clear
11:34 PM 11.7 °F - 8.4 °F 87% 30.11 in 10.0 mi Calm Calm - N/A   Clear
11:53 PM 12.0 °F 5.9 °F 8.8 °F 87% 30.12 in 10.0 mi West 3.5 mph - N/A   Clear